Location: Berkeley
(37.8716°N, 122.2727°W)
Time: 08:58:29
(UTC-08:00)

First-Move - Visible Passes

Search period start: 17 November 2019 00:00
Search period end: 27 November 2019 00:00
Orbit: 578 x 668 km, 97.6° (Epoch: 17 November)

Date Brightness Start Highest point End Pass type
(mag) Time Alt. Az. Time Alt. Az. Time Alt. Az.
17 Nov ? 05:55:52 10° NNE 06:00:01 36° E 06:04:04 10° SSE visible
17 Nov ? 18:24:57 10° SSW 18:28:54 30° W 18:32:57 10° NW visible
18 Nov ? 06:13:53 10° NNE 06:18:19 59° E 06:22:37 10° S visible
18 Nov ? 18:44:01 10° SW 18:47:17 19° W 18:50:35 10° NW visible
19 Nov ? 17:24:43 10° SSE 17:29:09 58° ENE 17:33:40 10° N visible
19 Nov ? 19:03:53 10° WSW 19:05:41 12° W 19:07:31 10° WNW visible
20 Nov ? 05:16:17 10° ENE 05:18:14 13° E 05:20:10 10° ESE visible
20 Nov ? 17:42:49 10° SSE 17:47:21 88° WSW 17:51:58 10° NNW visible
21 Nov ? 05:33:20 10° NE 05:36:38 20° E 05:39:52 10° SE visible
21 Nov ? 18:01:10 10° S 18:05:36 54° W 18:10:08 10° NNW visible
22 Nov ? 05:51:01 10° NNE 05:55:00 32° E 05:58:51 10° SSE visible
22 Nov ? 18:19:47 10° SSW 18:23:54 34° W 18:28:05 10° NNW visible
23 Nov ? 06:08:58 10° NNE 06:13:18 52° E 06:17:29 10° S visible
23 Nov ? 18:38:45 10° SW 18:42:15 22° W 18:45:48 10° NW visible
24 Nov ? 06:27:06 10° NNE 06:31:32 87° E 06:35:49 10° SSW visible
24 Nov ? 17:19:46 10° SSE 17:24:11 52° ENE 17:28:39 10° N visible
24 Nov ? 18:58:20 10° WSW 19:00:39 14° W 19:02:59 10° WNW visible
25 Nov ? 05:11:59 10° ENE 05:13:09 11° E 05:14:17 10° ESE visible
25 Nov ? 17:37:48 10° SSE 17:42:22 83° ENE 17:46:59 10° N visible
26 Nov ? 05:28:35 10° NE 05:31:33 18° E 05:34:28 10° SE visible
26 Nov ? 17:56:05 10° S 18:00:36 61° W 18:05:10 10° NNW visible
